TimeCDT,TemperatureF,Dew PointF,Humidity,Sea Level PressureIn,VisibilityMPH,Wind Direction,Wind SpeedMPH,Gust SpeedMPH,PrecipitationIn,Events,Conditions,WindDirDegrees,DateUTC
12:58 AM,81.5,65.7,58,30.06,10.0,NE,5.8,-,N/A,,Mostly Cloudy,50,2013-09-17 05:58:00
1:58 AM,80.6,65.5,60,30.06,10.0,ENE,5.8,-,N/A,,Mostly Cloudy,60,2013-09-17 06:58:00
2:58 AM,79.2,65.3,62,30.06,10.0,ENE,4.6,-,N/A,,Scattered Clouds,70,2013-09-17 07:58:00
3:58 AM,76.8,64.0,65,30.06,10.0,NE,2.3,-,N/A,,Partly Cloudy,50,2013-09-17 08:58:00
4:58 AM,75.0,63.9,68,30.04,10.0,Calm,Calm,-,N/A,,Clear,0,2013-09-17 09:58:00
5:58 AM,74.7,62.2,65,30.06,10.0,NNE,4.6,-,N/A,,Clear,20,2013-09-17 10:58:00
6:58 AM,73.8,60.8,64,30.08,10.0,Calm,Calm,-,N/A,,Scattered Clouds,0,2013-09-17 11:58:00
7:58 AM,73.9,60.4,63,30.09,10.0,ENE,2.3,-,N/A,,Mostly Cloudy,70,2013-09-17 12:58:00
8:58 AM,76.1,59.5,56,30.10,10.0,Calm,Calm,-,N/A,,Scattered Clouds,0,2013-09-17 13:58:00
9:58 AM,78.6,60.6,54,30.11,10.0,NE,2.3,-,N/A,,Scattered Clouds,50,2013-09-17 14:58:00
10:58 AM,82.6,63.7,53,30.11,10.0,East,1.2,-,N/A,,Scattered Clouds,80,2013-09-17 15:58:00
11:58 AM,84.4,65.7,53,30.09,10.0,NNW,1.2,-,N/A,,Mostly Cloudy,340,2013-09-17 16:58:00
12:58 PM,89.8,67.3,47,30.08,10.0,WNW,6.9,-,N/A,,Partly Cloudy,300,2013-09-17 17:58:00
1:58 PM,93.2,66.9,42,30.04,10.0,ESE,11.5,-,N/A,,Scattered Clouds,120,2013-09-17 18:58:00
2:58 PM,93.7,65.3,39,30.01,10.0,Variable,5.8,-,N/A,,Partly Cloudy,0,2013-09-17 19:58:00
3:58 PM,93.6,64.6,38,29.99,10.0,ESE,5.8,-,N/A,,Clear,110,2013-09-17 20:58:00
4:58 PM,92.1,65.7,42,29.98,10.0,NE,3.5,-,N/A,,Clear,40,2013-09-17 21:58:00
5:58 PM,91.4,64.9,41,29.98,10.0,East,2.3,-,N/A,,Partly Cloudy,100,2013-09-17 22:58:00
6:58 PM,87.6,67.3,51,29.99,10.0,NE,4.6,-,N/A,,Mostly Cloudy,40,2013-09-17 23:58:00
7:58 PM,84.6,67.8,57,29.99,10.0,ENE,5.8,-,N/A,,Mostly Cloudy,60,2013-09-18 00:58:00
8:58 PM,82.6,67.5,60,30.01,10.0,ENE,4.6,-,N/A,,Scattered Clouds,70,2013-09-18 01:58:00
9:58 PM,82.6,67.8,61,30.01,10.0,East,4.6,-,N/A,,Scattered Clouds,90,2013-09-18 02:58:00
10:58 PM,81.3,66.9,61,30.01,10.0,ESE,2.3,-,N/A,,Partly Cloudy,110,2013-09-18 03:58:00
11:58 PM,79.3,66.6,65,30.01,10.0,South,2.3,-,N/A,,Clear,170,2013-09-18 04:58:00